User: anonymous   Login
Location: Unspecified
(0.0000°N, 0.0000°E)
Time: 01:31:30
(UTC+02:00)
Language:

Ariane 42L R/B - Orbit

View from above orbital plane
View from above orbital plane
View from above satellite
View from above satellite

Ground track
Ground track

The orbit data is extracted from the following two-line orbital elements,

1 26299U 00020B   15240.92295516 +.00019424 +00000-0 +18786-2 0  9993
2 26299 007.4308 148.7954 6045685 196.8278 328.6527 04.00750764191978
Epoch (UTC): 28 August 2015 22:09:03
Eccentricity: 0.6045685
inclination: 7.4308°
perigee height: 242 km
apogee height: 20486 km
right ascension of ascending node: 148.7954°
argument of perigee: 196.8278°
revolutions per day: 4.00750764
mean anomaly at epoch: 328.6527°
orbit number at epoch: 19197

The dashed part of the orbit path shows where the satellite is in the earth's shadow,  

DLR